Terminal Aerodrome Forecast
Issued by NWS Charleston, WV

Home | Current Version | Previous Version | Text Only | Print | Product List | Glossary On
Versions: 1 2 3 4 5 6 7 8 9 10 11 12 13 14 15 16 17 18 19 20 21 22 23 24 25 26 27 28 29 30 31
180
FTUS41 KRLX 071437 AAD
TAFCRW
TAF AMD
KCRW 071437Z 0715/0812 27004KT P6SM SCT080 BKN150
     FM071900 VRB03KT P6SM BKN120
     FM072100 00000KT P6SM SCT110
     FM080500 00000KT P6SM BKN100=

USA.gov is the U.S. government's official web portal to all federal, state and local government web resources and services.